Time,TemperatureF,DewpointF,PressureIn,WindDirection,WindDirectionDegrees,WindSpeedMPH,WindSpeedGustMPH,Humidity,HourlyPrecipIn,Conditions,Clouds,dailyrainin,SoftwareType,DateUTC
2013-02-12 00:02:00,43.7,43.0,30.31,NW,317,0.0,-999.0,97,-99.99,,,0.05,weatherlink.com 1.10,2013-02-12 08:02:00,
2013-02-12 00:17:00,43.8,43.0,30.31,NW,316,0.0,-999.0,97,-99.99,,,0.00,weatherlink.com 1.10,2013-02-12 08:17:00,
2013-02-12 00:34:00,43.6,43.0,30.31,NW,316,0.0,-999.0,97,-99.99,,,0.00,weatherlink.com 1.10,2013-02-12 08:34:00,
2013-02-12 00:47:00,43.2,42.0,30.30,NW,316,0.0,-999.0,97,-99.99,,,0.00,weatherlink.com 1.10,2013-02-12 08:47:00,
2013-02-12 01:02:00,42.8,42.0,30.30,NW,316,0.0,-999.0,97,-99.99,,,0.00,weatherlink.com 1.10,2013-02-12 09:02:00,
2013-02-12 01:17:00,42.6,42.0,30.31,NW,315,0.0,-999.0,97,-99.99,,,0.00,weatherlink.com 1.10,2013-02-12 09:17:00,
2013-02-12 01:34:00,42.7,42.0,30.32,West,264,1.0,-999.0,97,-99.99,,,0.00,weatherlink.com 1.10,2013-02-12 09:34:00,
2013-02-12 01:47:00,43.4,43.0,30.31,NNE,14,2.0,-999.0,97,-99.99,,,0.00,weatherlink.com 1.10,2013-02-12 09:47:00,
2013-02-12 02:02:00,43.2,42.0,30.31,NNE,14,0.0,-999.0,97,-99.99,,,0.00,weatherlink.com 1.10,2013-02-12 10:02:00,
2013-02-12 02:17:00,42.7,42.0,30.31,NNE,14,0.0,-999.0,97,-99.99,,,0.00,weatherlink.com 1.10,2013-02-12 10:17:00,
2013-02-12 02:34:00,42.6,42.0,30.32,NNE,14,0.0,-999.0,96,-99.99,,,0.00,weatherlink.com 1.10,2013-02-12 10:34:00,
2013-02-12 02:47:00,42.5,42.0,30.32,NNE,14,0.0,-999.0,97,-99.99,,,0.00,weatherlink.com 1.10,2013-02-12 10:47:00,
2013-02-12 03:02:00,42.4,42.0,30.32,NNE,14,0.0,-999.0,97,-99.99,,,0.00,weatherlink.com 1.10,2013-02-12 11:02:00,
2013-02-12 03:17:00,42.0,41.0,30.31,North,9,1.0,-999.0,97,-99.99,,,0.00,weatherlink.com 1.10,2013-02-12 11:17:00,
2013-02-12 03:34:00,41.8,41.0,30.31,North,9,0.0,-999.0,97,-99.99,,,0.00,weatherlink.com 1.10,2013-02-12 11:34:00,
2013-02-12 03:47:00,41.7,41.0,30.31,SW,216,2.0,-999.0,97,-99.99,,,0.00,weatherlink.com 1.10,2013-02-12 11:47:00,
2013-02-12 04:02:00,41.6,41.0,30.30,SW,227,2.0,-999.0,97,-99.99,,,0.00,weatherlink.com 1.10,2013-02-12 12:02:00,
2013-02-12 04:17:00,41.6,41.0,30.30,SW,227,0.0,-999.0,97,-99.99,,,0.00,weatherlink.com 1.10,2013-02-12 12:17:00,
2013-02-12 04:34:00,41.9,41.0,30.30,SW,227,0.0,-999.0,97,-99.99,,,0.00,weatherlink.com 1.10,2013-02-12 12:34:00,
2013-02-12 04:47:00,41.6,41.0,30.30,WSW,238,3.0,-999.0,97,-99.99,,,0.00,weatherlink.com 1.10,2013-02-12 12:47:00,
2013-02-12 05:02:00,41.6,41.0,30.30,WSW,238,0.0,-999.0,97,-99.99,,,0.00,weatherlink.com 1.10,2013-02-12 13:02:00,
2013-02-12 05:17:00,41.6,41.0,30.30,WSW,238,0.0,-999.0,97,-99.99,,,0.00,weatherlink.com 1.10,2013-02-12 13:17:00,
2013-02-12 05:34:00,41.6,41.0,30.30,WSW,240,0.0,-999.0,97,-99.99,,,0.00,weatherlink.com 1.10,2013-02-12 13:34:00,
2013-02-12 05:47:00,42.0,42.0,30.31,WSW,241,1.0,-999.0,98,-99.99,,,0.00,weatherlink.com 1.10,2013-02-12 13:47:00,
2013-02-12 06:02:00,42.5,42.0,30.31,WSW,241,2.0,-999.0,97,-99.99,,,0.00,weatherlink.com 1.10,2013-02-12 14:02:00,
2013-02-12 06:17:00,42.6,42.0,30.32,WSW,241,0.0,-999.0,97,-99.99,,,0.00,weatherlink.com 1.10,2013-02-12 14:17:00,
2013-02-12 06:34:00,42.5,42.0,30.32,WSW,241,0.0,-999.0,97,-99.99,,,0.00,weatherlink.com 1.10,2013-02-12 14:34:00,
2013-02-12 06:47:00,42.0,41.0,30.32,WSW,241,2.0,-999.0,97,-99.99,,,0.00,weatherlink.com 1.10,2013-02-12 14:47:00,
2013-02-12 07:02:00,42.0,41.0,30.32,WSW,241,0.0,-999.0,97,-99.99,,,0.00,weatherlink.com 1.10,2013-02-12 15:02:00,
2013-02-12 07:17:00,42.2,42.0,30.32,WSW,241,1.0,-999.0,98,-99.99,,,0.00,weatherlink.com 1.10,2013-02-12 15:17:00,
2013-02-12 07:34:00,42.3,42.0,30.32,WSW,241,0.0,-999.0,97,-99.99,,,0.00,weatherlink.com 1.10,2013-02-12 15:34:00,
2013-02-12 07:47:00,42.3,42.0,30.32,WSW,241,0.0,-999.0,97,-99.99,,,0.00,weatherlink.com 1.10,2013-02-12 15:47:00,
2013-02-12 08:02:00,42.5,42.0,30.32,WSW,241,0.0,-999.0,97,-99.99,,,0.00,weatherlink.com 1.10,2013-02-12 16:02:00,
2013-02-12 08:17:00,42.7,42.0,30.32,WSW,241,0.0,-999.0,98,-99.99,,,0.00,weatherlink.com 1.10,2013-02-12 16:17:00,
2013-02-12 08:35:00,42.9,42.0,30.33,WSW,241,0.0,-999.0,98,-99.99,,,0.00,weatherlink.com 1.10,2013-02-12 16:35:00,
2013-02-12 08:48:00,43.4,43.0,30.33,WSW,241,0.0,-999.0,98,-99.99,,,0.00,weatherlink.com 1.10,2013-02-12 16:48:00,
2013-02-12 09:03:00,43.6,43.0,30.33,WSW,241,0.0,-999.0,98,-99.99,,,0.00,weatherlink.com 1.10,2013-02-12 17:03:00,
2013-02-12 09:18:00,43.6,43.0,30.33,WSW,241,0.0,-999.0,98,-99.99,,,0.00,weatherlink.com 1.10,2013-02-12 17:18:00,
2013-02-12 09:35:00,43.8,43.0,30.34,WSW,241,0.0,-999.0,98,-99.99,,,0.00,weatherlink.com 1.10,2013-02-12 17:35:00,
2013-02-12 09:48:00,44.5,44.0,30.34,SW,217,2.0,-999.0,98,-99.99,,,0.00,weatherlink.com 1.10,2013-02-12 17:48:00,
2013-02-12 10:03:00,45.0,45.0,30.33,SW,217,0.0,-999.0,98,-99.99,,,0.00,weatherlink.com 1.10,2013-02-12 18:03:00,
2013-02-12 10:18:00,45.7,45.0,30.32,WSW,244,11.0,-999.0,98,-99.99,,,0.00,weatherlink.com 1.10,2013-02-12 18:18:00,
2013-02-12 10:35:00,46.4,46.0,30.32,SSE,149,0.0,-999.0,97,-99.99,,,0.00,weatherlink.com 1.10,2013-02-12 18:35:00,
2013-02-12 10:48:00,47.2,46.0,30.33,WNW,288,0.0,-999.0,94,-99.99,,,0.00,weatherlink.com 1.10,2013-02-12 18:48:00,
2013-02-12 11:03:00,47.3,45.0,30.33,South,188,8.0,-999.0,92,-99.99,,,0.00,weatherlink.com 1.10,2013-02-12 19:03:00,
2013-02-12 11:18:00,47.4,45.0,30.33,SW,215,4.0,-999.0,92,-99.99,,,0.00,weatherlink.com 1.10,2013-02-12 19:18:00,
2013-02-12 11:35:00,47.5,45.0,30.32,West,261,4.0,-999.0,91,-99.99,,,0.00,weatherlink.com 1.10,2013-02-12 19:35:00,
2013-02-12 11:48:00,47.4,45.0,30.32,SSE,162,4.0,-999.0,91,-99.99,,,0.00,weatherlink.com 1.10,2013-02-12 19:48:00,
2013-02-12 12:03:00,47.4,46.0,30.30,West,266,4.0,-999.0,93,-99.99,,,0.00,weatherlink.com 1.10,2013-02-12 20:03:00,
2013-02-12 12:18:00,48.9,46.0,30.29,WSW,251,8.0,-999.0,91,-99.99,,,0.00,weatherlink.com 1.10,2013-02-12 20:18:00,
2013-02-12 12:35:00,49.2,46.0,30.29,SW,222,3.0,-999.0,89,-99.99,,,0.00,weatherlink.com 1.10,2013-02-12 20:35:00,
2013-02-12 12:48:00,49.2,46.0,30.28,SW,226,6.0,-999.0,87,-99.99,,,0.00,weatherlink.com 1.10,2013-02-12 20:48:00,
2013-02-12 13:03:00,49.2,46.0,30.27,SE,144,0.0,-999.0,87,-99.99,,,0.00,weatherlink.com 1.10,2013-02-12 21:03:00,
2013-02-12 13:18:00,49.2,46.0,30.29,SW,216,1.0,-999.0,87,-99.99,,,0.00,weatherlink.com 1.10,2013-02-12 21:18:00,
2013-02-12 13:35:00,49.2,46.0,30.30,NW,311,0.0,-999.0,88,-99.99,,,0.00,weatherlink.com 1.10,2013-02-12 21:35:00,
2013-02-12 13:48:00,48.8,46.0,30.29,WSW,242,0.0,-999.0,90,-99.99,,,0.00,weatherlink.com 1.10,2013-02-12 21:48:00,
2013-02-12 14:03:00,48.6,47.0,30.29,West,268,0.0,-999.0,93,-99.99,,,0.01,weatherlink.com 1.10,2013-02-12 22:03:00,
2013-02-12 14:18:00,48.7,47.0,30.30,SW,232,0.0,-999.0,93,-99.99,,,0.01,weatherlink.com 1.10,2013-02-12 22:18:00,
2013-02-12 14:35:00,48.7,47.0,30.29,SSW,204,3.0,-999.0,92,-99.99,,,0.01,weatherlink.com 1.10,2013-02-12 22:35:00,
2013-02-12 14:48:00,48.8,47.0,30.28,WSW,242,1.0,-999.0,93,-99.99,,,0.01,weatherlink.com 1.10,2013-02-12 22:48:00,
2013-02-12 15:03:00,49.0,47.0,30.28,SW,219,0.0,-999.0,92,-99.99,,,0.01,weatherlink.com 1.10,2013-02-12 23:03:00,
2013-02-12 15:18:00,48.9,47.0,30.28,NE,34,0.0,-999.0,92,-99.99,,,0.01,weatherlink.com 1.10,2013-02-12 23:18:00,
2013-02-12 15:35:00,48.8,47.0,30.28,SSW,204,0.0,-999.0,93,-99.99,,,0.01,weatherlink.com 1.10,2013-02-12 23:35:00,
2013-02-12 15:47:00,48.6,47.0,30.28,West,275,0.0,-999.0,94,-99.99,,,0.01,weatherlink.com 1.10,2013-02-12 23:47:00,
2013-02-12 16:02:00,48.5,47.0,30.29,North,5,5.0,-999.0,94,-99.99,,,0.01,weatherlink.com 1.10,2013-02-13 00:02:00,
2013-02-12 16:17:00,48.3,47.0,30.29,SW,217,0.0,-999.0,94,-99.99,,,0.01,weatherlink.com 1.10,2013-02-13 00:17:00,
2013-02-12 16:35:00,48.0,46.0,30.29,SSW,212,0.0,-999.0,94,-99.99,,,0.01,weatherlink.com 1.10,2013-02-13 00:35:00,
2013-02-12 16:48:00,47.8,46.0,30.27,NNE,12,0.0,-999.0,94,-99.99,,,0.02,weatherlink.com 1.10,2013-02-13 00:48:00,
2013-02-12 17:03:00,47.6,46.0,30.27,ENE,58,2.0,-999.0,94,-99.99,,,0.03,weatherlink.com 1.10,2013-02-13 01:03:00,
2013-02-12 17:18:00,47.6,46.0,30.27,South,189,3.0,-999.0,94,-99.99,,,0.04,weatherlink.com 1.10,2013-02-13 01:18:00,
2013-02-12 17:35:00,47.5,46.0,30.27,WSW,239,1.0,-999.0,94,-99.99,,,0.05,weatherlink.com 1.10,2013-02-13 01:35:00,
2013-02-12 17:48:00,47.4,46.0,30.26,ENE,61,0.0,-999.0,95,-99.99,,,0.06,weatherlink.com 1.10,2013-02-13 01:48:00,
2013-02-12 18:03:00,47.3,46.0,30.26,SSW,194,0.0,-999.0,94,-99.99,,,0.07,weatherlink.com 1.10,2013-02-13 02:03:00,
2013-02-12 18:18:00,47.3,46.0,30.26,South,171,3.0,-999.0,95,-99.99,,,0.09,weatherlink.com 1.10,2013-02-13 02:18:00,
2013-02-12 18:35:00,47.3,46.0,30.26,SSE,163,3.0,-999.0,95,-99.99,,,0.10,weatherlink.com 1.10,2013-02-13 02:35:00,
2013-02-12 18:48:00,47.4,46.0,30.27,West,275,0.0,-999.0,95,-99.99,,,0.11,weatherlink.com 1.10,2013-02-13 02:48:00,
2013-02-12 19:03:00,47.4,46.0,30.26,East,86,0.0,-999.0,95,-99.99,,,0.12,weatherlink.com 1.10,2013-02-13 03:03:00,
2013-02-12 19:18:00,47.4,46.0,30.27,North,11,2.0,-999.0,95,-99.99,,,0.12,weatherlink.com 1.10,2013-02-13 03:18:00,
2013-02-12 19:35:00,47.4,46.0,30.27,NNE,30,0.0,-999.0,95,-99.99,,,0.12,weatherlink.com 1.10,2013-02-13 03:35:00,
2013-02-12 19:48:00,47.3,46.0,30.26,North,9,0.0,-999.0,96,-99.99,,,0.13,weatherlink.com 1.10,2013-02-13 03:48:00,
2013-02-12 20:03:00,47.1,46.0,30.25,North,11,0.0,-999.0,96,-99.99,,,0.13,weatherlink.com 1.10,2013-02-13 04:03:00,
2013-02-12 20:18:00,47.0,46.0,30.26,North,9,0.0,-999.0,96,-99.99,,,0.13,weatherlink.com 1.10,2013-02-13 04:18:00,
2013-02-12 20:35:00,46.9,46.0,30.26,North,5,0.0,-999.0,96,-99.99,,,0.13,weatherlink.com 1.10,2013-02-13 04:35:00,
2013-02-12 20:48:00,46.9,46.0,30.26,North,5,0.0,-999.0,96,-99.99,,,0.14,weatherlink.com 1.10,2013-02-13 04:48:00,
2013-02-12 21:03:00,46.4,45.0,30.27,WNW,286,0.0,-999.0,96,-99.99,,,0.15,weatherlink.com 1.10,2013-02-13 05:03:00,
2013-02-12 21:18:00,46.0,45.0,30.26,WNW,303,1.0,-999.0,96,-99.99,,,0.15,weatherlink.com 1.10,2013-02-13 05:18:00,
2013-02-12 21:35:00,45.8,45.0,30.26,NW,310,1.0,-999.0,96,-99.99,,,0.15,weatherlink.com 1.10,2013-02-13 05:35:00,
2013-02-12 21:48:00,45.7,45.0,30.26,WSW,256,0.0,-999.0,96,-99.99,,,0.15,weatherlink.com 1.10,2013-02-13 05:48:00,
2013-02-12 22:03:00,45.2,44.0,30.26,North,11,0.0,-999.0,95,-99.99,,,0.15,weatherlink.com 1.10,2013-02-13 06:03:00,
2013-02-12 22:18:00,45.0,44.0,30.28,NNW,348,0.0,-999.0,96,-99.99,,,0.15,weatherlink.com 1.10,2013-02-13 06:18:00,
2013-02-12 22:35:00,45.0,44.0,30.28,NNE,17,3.0,-999.0,96,-99.99,,,0.15,weatherlink.com 1.10,2013-02-13 06:35:00,
2013-02-12 22:48:00,44.9,44.0,30.28,WNW,300,2.0,-999.0,96,-99.99,,,0.16,weatherlink.com 1.10,2013-02-13 06:48:00,
2013-02-12 23:03:00,44.7,44.0,30.28,NW,309,0.0,-999.0,96,-99.99,,,0.16,weatherlink.com 1.10,2013-02-13 07:03:00,
2013-02-12 23:18:00,44.6,44.0,30.29,ENE,60,0.0,-999.0,96,-99.99,,,0.16,weatherlink.com 1.10,2013-02-13 07:18:00,
2013-02-12 23:35:00,44.5,44.0,30.29,NE,55,2.0,-999.0,96,-99.99,,,0.16,weatherlink.com 1.10,2013-02-13 07:35:00,
2013-02-12 23:48:00,44.3,43.0,30.28,NE,42,0.0,-999.0,95,-99.99,,,0.16,weatherlink.com 1.10,2013-02-13 07:48:00,